Wind_Speed
17 18 19 20 20 20 20 20 20 20 19 19 18 18 18 17 16 16 16 16 16 16 15 14 12 12 11 10 8 8 6 4 3 3 3 3 3 5 6 6 5 5 5 5
17 18 19 19 20 21 21 21 20 21 21 20 19 18 18 17 16 16 15 15 16 16 16 16 14 13 12 11 9 8 6 6 5 4 4 4 4 4 4 4 5 5 6 6
16 17 18 19 20 21 22 21 21 21 21 20 19 18 17 17 15 15 15 15 16 16 16 15 15 14 13 12 10 9 8 7 6 5 5 4 4 4 5 6 6 7 7 8
16 17 19 20 21 21 22 22 22 22 21 21 19 18 17 16 15 15 15 15 15 15 16 16 16 15 14 14 13 11 9 8 7 6 5 5 5 6 7 7 7 8 9 9
16 17 19 20 21 21 22 22 23 22 22 21 19 17 16 16 15 15 15 15 16 16 16 16 16 16 16 16 15 14 12 10 9 8 7 6 6 7 7 8 9 9 10 11
15 17 19 20 21 21 22 22 23 22 21 21 19 18 17 16 15 15 15 15 16 17 17 18 18 18 18 17 16 16 15 13 11 10 8 8 7 6 6 7 8 9 10 11
14 16 18 20 21 22 23 23 22 22 21 20 19 18 17 17 17 16 16 16 17 17 18 18 19 19 19 19 18 18 17 15 14 12 11 10 9 7 7 7 7 8 10 11
14 15 17 19 20 21 22 22 22 22 21 20 19 18 18 17 17 17 17 17 17 18 18 19 19 20 20 20 20 19 18 18 16 15 14 13 11 10 9 8 7 7 8 9
14 15 16 17 19 19 20 20 20 21 21 20 19 19 18 18 18 17 17 18 18 19 19 19 19 20 20 21 21 20 20 19 18 17 16 14 13 12 10 9 8 7 6 6
13 14 15 15 17 18 19 19 19 19 19 19 19 19 18 18 17 17 17 18 18 18 19 19 19 20 20 21 21 21 21 20 19 18 18 17 15 14 13 12 10 8 7 6
12 13 14 14 15 16 17 17 17 18 17 17 18 17 17 17 16 16 17 17 18 18 18 19 19 20 21 21 21 21 21 20 20 19 19 18 17 16 15 15 13 11 9 8
11 12 12 13 13 14 15 16 16 16 15 15 15 16 15 15 15 15 15 16 16 17 18 18 19 19 20 21 21 21 21 20 20 20 19 19 18 17 17 16 15 14 13 11
11 11 11 12 12 12 13 14 14 14 14 13 13 13 13 13 13 14 14 15 15 16 17 17 18 18 19 20 20 21 21 21 20 20 19 19 19 18 18 17 17 16 15 14
10 11 11 11 11 11 11 12 12 13 13 12 11 12 12 11 12 12 12 13 14 15 15 16 17 17 18 19 19 20 20 20 20 20 20 20 19 19 19 18 17 17 17 16
11 11 11 11 11 11 11 11 11 11 11 11 10 10 10 10 10 11 11 11 12 13 13 14 15 16 17 18 18 19 19 20 20 20 20 20 19 19 19 19 18 18 17 17
12 12 12 11 11 11 10 10 10 10 10 10 9 9 9 9 8 9 9 10 10 11 12 13 13 14 15 16 17 17 18 19 19 20 20 20 19 19 18 18 18 17 17 17
14 13 13 12 12 12 11 11 10 10 9 9 9 9 8 8 8 8 8 9 9 10 10 11 11 12 13 14 15 15 16 17 17 18 19 19 19 18 18 18 18 17 16 16
17 16 15 14 14 13 13 12 11 11 10 10 9 9 9 9 9 9 9 8 9 9 9 9 10 10 11 12 12 13 14 14 15 16 17 17 17 17 17 17 16 16 16 15
21 19 18 17 16 15 15 14 14 13 13 12 11 11 10 10 10 10 10 10 9 9 9 9 9 9 9 10 10 11 12 12 13 13 14 15 15 15 15 15 15 15 15 14
24 23 21 20 19 18 18 17 16 16 15 14 14 14 13 12 12 11 11 11 11 11 10 10 10 9 9 9 9 9 9 10 11 11 12 12 13 13 13 13 13 13 13 12
28 27 25 24 23 22 21 20 20 19 18 17 17 17 16 16 15 14 14 13 12 12 12 12 11 11 10 10 9 9 9 9 9 9 10 10 10 11 11 11 11 11 11 10
32 31 30 28 27 26 25 24 23 22 22 21 20 20 19 19 19 18 17 16 15 14 14 13 13 12 12 11 11 10 10 9 9 9 8 8 9 9 9 9 9 9 9 8
37 36 35 33 32 31 29 28 28 27 26 25 24 23 22 22 22 21 21 20 19 18 17 16 15 14 13 13 13 12 11 11 10 9 8 8 8 7 7 7 8 7 7 7
43 42 41 39 38 36 35 34 33 31 31 30 29 28 27 26 25 24 24 23 22 21 20 19 18 17 16 15 14 14 13 13 12 11 10 9 8 8 7 7 7 7 6 6
47 47 46 45 43 42 41 39 38 36 35 34 33 32 31 30 29 28 27 26 25 25 24 22 21 20 19 18 17 16 16 15 14 13 12 12 11 10 9 9 8 8 7 6
50 50 49 48 47 46 45 44 42 41 40 39 38 37 36 34 33 32 31 30 29 28 27 26 25 24 23 22 20 19 18 17 17 16 15 15 14 13 13 12 11 10 10 9
52 51 51 51 50 49 48 47 46 45 44 43 42 41 40 39 38 37 35 34 33 32 31 30 29 28 27 26 24 23 22 21 20 19 18 18 18 17 16 15 15 14 13 12
Wind_Direction
16 14 13 14 12 8 7 7 6 6 5 4 4 4 5 7 9 13 17 22 24 24 23 22 21 20 22 23 19 18 19 14 359 344 333 310 276 260 257 254 251 244 240 233
14 13 12 12 10 8 8 7 6 4 4 4 6 6 8 11 14 16 19 23 24 26 27 28 26 22 20 19 17 15 12 8 359 344 330 321 306 292 272 263 265 259 254 248
13 12 10 10 10 10 10 10 6 4 3 4 6 9 13 16 18 20 24 26 27 27 28 28 28 27 24 20 15 8 2 357 352 343 332 321 311 293 277 268 262 261 261 257
14 12 11 11 11 12 11 10 8 7 6 8 11 13 17 20 22 26 30 31 30 29 28 27 27 26 25 22 18 14 10 8 3 354 340 325 312 300 287 281 276 272 268 266
14 14 14 13 13 12 11 10 10 10 11 14 17 19 23 26 26 27 30 32 31 30 29 29 27 25 23 23 22 23 20 14 8 1 352 339 323 304 292 282 276 273 272 269
14 14 15 15 15 14 14 15 14 15 16 19 24 27 30 31 31 32 34 34 32 33 33 32 30 29 27 27 27 27 25 22 17 10 2 353 343 330 311 296 286 280 276 271
13 14 17 17 17 17 17 18 20 21 22 25 28 33 37 38 39 42 41 38 36 36 36 35 34 34 34 32 31 30 28 26 25 22 18 12 4 353 339 321 304 291 284 278
13 15 17 18 18 20 20 21 24 26 27 29 33 38 42 43 44 45 43 41 41 41 40 39 38 37 37 35 35 34 33 32 31 29 25 21 15 7 356 343 327 311 298 288
12 14 15 17 19 20 21 23 26 29 31 34 38 42 45 46 47 47 45 45 45 44 43 42 39 38 37 36 36 36 35 35 33 31 29 26 24 20 14 5 356 344 329 314
8 11 12 14 16 19 21 23 26 30 33 35 39 43 47 48 48 48 47 46 46 45 44 42 40 39 38 37 36 36 36 35 35 34 33 31 30 28 26 23 20 15 7 355
3 5 8 9 13 17 20 22 25 28 31 34 37 41 45 46 47 47 46 45 44 43 42 41 40 38 37 37 36 36 35 35 35 35 35 34 34 33 33 32 31 29 28 26
354 357 0 3 8 13 16 19 21 24 29 32 34 36 39 42 43 44 43 42 42 41 40 39 39 37 36 35 35 35 35 34 34 35 36 36 36 35 36 36 37 38 41 43
342 347 352 356 1 6 11 14 17 19 22 27 30 32 34 37 38 38 38 38 38 37 36 36 36 35 34 34 34 34 35 35 35 36 36 36 36 37 38 39 41 43 46 50
327 336 343 348 352 356 0 5 10 14 17 20 24 26 28 31 32 33 33 33 33 33 33 33 33 32 32 32 33 34 35 36 37 37 38 37 38 38 40 42 44 47 50 54
313 323 332 338 342 345 348 352 357 2 8 12 15 18 20 22 24 25 26 26 27 27 28 28 29 30 31 31 32 33 35 36 37 37 37 38 39 39 41 44 47 50 54 57
300 308 317 325 330 332 335 337 340 346 352 358 1 3 6 7 9 13 15 17 17 18 19 21 23 24 26 27 29 31 32 34 35 35 36 37 38 39 41 44 47 51 54 57
288 296 303 310 316 320 321 322 324 327 331 336 342 346 347 348 349 350 353 358 2 5 7 10 14 16 19 21 24 26 27 29 31 33 34 35 37 39 41 43 46 49 52 55
279 285 291 297 303 308 310 311 311 312 313 314 318 324 330 332 332 332 333 334 339 344 350 355 359 3 7 11 14 18 20 23 25 28 30 32 35 37 39 41 43 46 49 52
273 278 282 287 292 296 299 301 302 301 300 300 300 302 307 313 318 319 319 320 320 324 327 333 339 345 350 354 359 4 9 13 17 21 24 26 29 31 33 36 39 43 46 49
269 271 275 278 282 286 289 291 293 293 292 292 291 291 291 294 298 304 309 310 310 311 312 313 316 323 330 335 340 346 353 359 4 9 14 18 21 24 27 30 33 37 41 44
266 268 270 272 275 278 281 283 285 286 287 287 286 286 285 285 286 288 292 296 300 302 304 305 305 306 309 315 321 325 331 337 344 350 356 3 10 15 19 23 26 29 33 37
263 265 267 268 270 272 274 277 278 280 281 282 282 282 282 281 281 281 282 285 287 290 293 296 298 299 298 300 305 308 311 314 318 324 332 341 350 359 7 12 16 19 23 28
261 263 264 265 266 268 270 271 273 275 276 278 278 278 278 278 278 277 278 279 280 281 283 285 288 291 293 292 292 295 298 299 300 302 306 314 324 333 343 352 359 4 8 13
259 260 262 263 264 265 266 267 269 270 272 273 274 275 275 275 275 275 275 275 275 276 276 277 279 282 284 286 286 286 288 289 288 287 287 290 297 305 313 321 329 338 345 350
256 258 260 261 262 263 264 265 266 267 268 269 270 271 271 271 271 272 272 272 272 271 272 272 273 274 277 279 280 281 281 281 279 278 277 278 280 284 289 295 300 304 309 315
255 256 258 259 260 261 262 262 263 264 265 266 266 267 268 268 268 268 268 268 269 269 268 268 268 269 270 272 274 275 276 275 273 271 270 271 271 273 275 278 281 285 288 291
254 255 256 257 257 258 259 260 261 261 262 262 263 264 265 265 266 266 265 266 266 266 266 266 266 266 266 267 268 269 270 271 270 268 266 266 266 267 268 269 270 272 274 277
Height
5884 5880 5875 5871 5866 5861 5857 5852 5848 5843 5839 5835 5830 5826 5821 5817 5813 5810 5806 5803 5799 5796 5793 5790 5787 5784 5782 5780 5778 5777 5776 5775 5774 5774 5774 5773 5773 5773 5773 5773 5774 5774 5775 5775
5884 5880 5876 5871 5867 5862 5857 5852 5847 5843 5838 5834 5829 5825 5821 5818 5814 5811 5808 5805 5801 5798 5795 5792 5789 5786 5784 5782 5780 5778 5777 5776 5775 5774 5773 5773 5772 5772 5772 5772 5772 5773 5773 5774
5885 5881 5877 5873 5868 5862 5857 5852 5848 5843 5839 5833 5829 5825 5821 5818 5815 5812 5809 5806 5803 5800 5797 5794 5792 5789 5786 5783 5781 5779 5777 5776 5775 5774 5773 5772 5771 5771 5771 5771 5771 5771 5772 5772
5885 5882 5878 5876 5868 5863 5858 5853 5848 5843 5838 5833 5829 5825 5822 5819 5816 5813 5811 5808 5805 5802 5799 5796 5794 5791 5788 5785 5782 5780 5777 5776 5774 5773 5772 5771 5771 5770 5770 5769 5769 5769 5769 5770
5885 5882 5878 5874 5869 5864 5859 5854 5849 5844 5839 5834 5829 5826 5823 5820 5817 5814 5812 5810 5807 5804 5801 5798 5796 5793 5789 5787 5784 5781 5778 5776 5775 5773 5772 5771 5770 5769 5768 5767 5767 5767 5767 5767
5886 5882 5878 5876 5870 5865 5861 5855 5850 5845 5840 5835 5831 5828 5825 5822 5818 5816 5813 5811 5809 5806 5803 5801 5798 5795 5791 5788 5785 5782 5780 5777 5775 5773 5771 5770 5769 5767 5766 5765 5765 5764 5764 5764
5886 5883 5879 5875 5871 5866 5862 5858 5852 5847 5842 5837 5833 5830 5827 5824 5821 5818 5816 5814 5811 5809 5806 5803 5800 5797 5794 5791 5788 5785 5781 5779 5776 5774 5772 5770 5768 5766 5765 5764 5762 5762 5761 5760
5886 5883 5881 5876 5871 5868 5864 5858 5854 5849 5845 5840 5836 5833 5829 5827 5824 5821 5819 5817 5814 5811 5809 5806 5803 5800 5797 5794 5790 5787 5784 5781 5778 5775 5773 5770 5768 5766 5764 5762 5761 5759 5758 5757
5886 5885 5880 5876 5873 5869 5865 5860 5856 5852 5847 5843 5840 5836 5833 5830 5827 5825 5823 5820 5817 5815 5812 5809 5807 5804 5800 5797 5794 5790 5787 5783 5780 5777 5775 5772 5769 5767 5764 5762 5760 5758 5757 5755
5885 5883 5880 5877 5873 5870 5866 5862 5858 5854 5850 5846 5843 5840 5836 5834 5831 5829 5826 5824 5821 5818 5816 5813 5810 5807 5804 5800 5797 5793 5790 5787 5783 5780 5777 5774 5771 5768 5765 5763 5760 5758 5756 5755
5884 5882 5879 5877 5874 5871 5867 5863 5860 5856 5853 5849 5846 5843 5840 5837 5835 5832 5830 5827 5825 5822 5819 5816 5813 5810 5807 5804 5800 5797 5794 5790 5787 5783 5780 5777 5774 5770 5767 5764 5762 5759 5757 5755
5884 5882 5879 5877 5874 5871 5868 5864 5861 5858 5855 5852 5849 5846 5843 5841 5838 5836 5833 5831 5828 5825 5823 5820 5817 5814 5811 5807 5804 5800 5797 5793 5790 5787 5783 5780 5777 5773 5770 5767 5764 5761 5759 5757
5883 5881 5878 5876 5873 5871 5868 5865 5862 5859 5856 5854 5851 5848 5846 5843 5841 5838 5836 5834 5831 5829 5826 5823 5820 5817 5814 5811 5807 5804 5800 5797 5793 5790 5787 5783 5780 5777 5773 5771 5767 5765 5762 5760
5881 5879 5877 5874 5872 5870 5868 5865 5863 5860 5857 5855 5852 5850 5847 5845 5843 5841 5838 5836 5834 5831 5829 5826 5823 5820 5817 5814 5810 5807 5804 5800 5797 5794 5790 5787 5784 5780 5777 5774 5771 5768 5766 5764
5878 5877 5875 5873 5871 5869 5867 5865 5863 5860 5858 5856 5853 5851 5849 5846 5844 5842 5840 5838 5836 5833 5831 5829 5826 5823 5820 5817 5814 5811 5807 5804 5801 5798 5794 5791 5788 5785 5781 5778 5775 5773 5771 5768
5875 5874 5872 5871 5869 5867 5865 5864 5862 5860 5858 5856 5853 5851 5849 5847 5845 5843 5841 5839 5837 5835 5833 5830 5828 5825 5823 5820 5817 5814 5811 5808 5804 5801 5798 5795 5792 5789 5786 5783 5780 5778 5775 5774
5871 5870 5869 5868 5866 5865 5863 5862 5860 5858 5857 5855 5853 5851 5849 5847 5845 5843 5842 5840 5838 5836 5834 5832 5829 5827 5825 5822 5819 5817 5814 5811 5808 5805 5802 5799 5796 5793 5790 5787 5785 5782 5780 5778
5866 5866 5865 5864 5863 5862 5860 5859 5857 5856 5854 5853 5851 5850 5848 5846 5844 5843 5841 5839 5838 5836 5834 5832 5830 5828 5826 5824 5821 5819 5816 5813 5811 5808 5805 5802 5799 5797 5794 5791 5789 5786 5784 5782
5860 5860 5859 5859 5858 5857 5856 5855 5854 5853 5851 5850 5849 5847 5846 5844 5843 5841 5840 5838 5837 5835 5833 5832 5830 5828 5826 5824 5822 5820 5818 5815 5813 5810 5808 5805 5802 5800 5797 5795 5793 5790 5788 5786
5852 5853 5853 5853 5852 5852 5851 5850 5849 5848 5847 5846 5845 5844 5843 5842 5840 5839 5837 5836 5835 5833 5832 5830 5829 5827 5826 5824 5822 5820 5818 5816 5814 5812 5809 5807 5805 5802 5800 5798 5796 5794 5792 5790
5844 5844 5845 5845 5845 5845 5845 5844 5844 5843 5842 5841 5840 5840 5839 5838 5837 5835 5834 5833 5832 5831 5829 5828 5826 5825 5824 5822 5821 5819 5818 5816 5814 5812 5810 5808 5806 5804 5802 5800 5798 5796 5794 5793
5834 5835 5836 5836 5837 5837 5837 5837 5837 5836 5836 5835 5835 5834 5833 5833 5832 5831 5830 5829 5828 5827 5826 5825 5824 5822 5821 5820 5819 5817 5816 5815 5813 5811 5810 5808 5806 5805 5803 5801 5799 5797 5796 5794
5822 5824 5825 5826 5827 5828 5828 5828 5828 5828 5828 5828 5828 5827 5827 5826 5826 5825 5825 5824 5823 5823 5822 5821 5820 5819 5818 5817 5816 5815 5813 5812 5811 5809 5808 5807 5806 5804 5803 5801 5800 5798 5797 5795
5809 5811 5812 5814 5815 5817 5818 5818 5819 5819 5819 5819 5819 5819 5819 5819 5819 5818 5818 5818 5817 5817 5816 5816 5815 5814 5813 5813 5812 5811 5810 5809 5807 5806 5806 5805 5804 5803 5802 5801 5799 5798 5797 5795
5795 5797 5799 5800 5802 5804 5805 5806 5807 5808 5809 5809 5809 5809 5810 5810 5810 5810 5810 5810 5810 5810 5810 5809 5809 5809 5808 5807 5807 5806 5805 5804 5803 5803 5802 5802 5801 5800 5800 5799 5798 5797 5796 5795
5780 5782 5783 5785 5787 5789 5791 5792 5794 5795 5796 5797 5798 5798 5799 5799 5800 5800 5800 5801 5801 5801 5801 5801 5802 5802 5801 5801 5801 5800 5800 5799 5799 5798 5798 5797 5797 5797 5796 5796 5795 5794 5793 5792
5763 5765 5767 5769 5771 5773 5775 5777 5779 5781 5782 5784 5785 5785 5786 5787 5788 5789 5789 5790 5790 5791 5792 5792 5793 5793 5793 5793 5793 5793 5793 5793 5793 5792 5792 5792 5792 5792 5791 5791 5791 5790 5790 5789